Home > Weather > Jalandhar > Past weeks

Flag for India Weather for the Past 2 Weeks in Jalandhar, Punjab, India

Now
59 °F

Passing clouds.


Feels Like: 59 °F
Forecast: 50 / 66 °F
Wind: No wind

Location: Lahore Airport

Current Time: Feb 7, 2016 at 1:01:34 AM

Latest Report: Feb 7, 2016 at 12:25 AM


Visibility: 2 mi

Pressure: 29.98 "Hg

Humidity: 68%

Dew point: 48 °F

Location of JalandharLocation

Historic Weather in Jalandhar — Graph

°F

Jalandhar Temperature Yesterday

Maximum temperature yesterday: 70 °F (at 12:55 PM)
Minimum temperature yesterday: 48 °F (at 7:30 AM)
Average temperature yesterday: 60 °F

High & Low Weather Summary for the Past Weeks

 TemperatureHumidityPressure
High75 °F (Feb 5, 2:25 PM)100% (Jan 26, 1:25 AM)30.21 "Hg (Jan 26, 1:25 AM)
Low39 °F (Jan 24, 7:30 AM)25% (Feb 4, 4:00 PM)29.74 "Hg (Jan 26, 12:30 PM)
Average56 °F69%30.05 "Hg
* Reported Jan 22 11:55 PM — Feb 6 11:55 PM, Jalandhar, Weather by CustomWeather, © 2016

Note: Actual official high and low records may vary slightly from our data, if they occured in-between our weather recording intervals... More about our weather records

Advertising

Jalandhar Weather History for the Previous 24 Hours

 ConditionsComfort  
Time TempWeatherWind HumidityBarometerVisibility
11:55 PM
Sat, Feb 6
59 °FPassing clouds.2 mph68%29.98 "Hg2 mi
11:25 PM59 °FPassing clouds.No wind68%29.98 "Hg2 mi
10:55 PM61 °FPassing clouds.5 mph63%29.95 "Hg2 mi
10:25 PM61 °FPassing clouds.5 mph63%29.95 "Hg2 mi
9:55 PM61 °FPassing clouds.No wind59%29.95 "Hg3 mi
9:25 PM61 °FPassing clouds.No wind59%29.95 "Hg3 mi
8:55 PM63 °FPassing clouds.No wind56%29.95 "Hg3 mi
8:25 PM63 °FPassing clouds.No wind56%29.95 "Hg3 mi
7:55 PM64 °FPassing clouds.No wind52%29.92 "Hg3 mi
7:25 PM64 °FPassing clouds.No wind52%29.92 "Hg3 mi
6:55 PM66 °FPartly cloudy.No wind52%29.92 "Hg2 mi
6:25 PM66 °FPartly cloudy.5 mph52%29.89 "Hg2 mi
5:55 PM68 °FBroken clouds.6 mph43%29.89 "Hg3 mi
5:25 PM68 °FBroken clouds.5 mph43%29.89 "Hg3 mi
4:55 PM70 °FBroken clouds.No wind40%29.89 "Hg3 mi
4:25 PM70 °FBroken clouds.No wind40%29.89 "Hg3 mi
3:25 PM70 °FScattered clouds.6 mph43%29.92 "Hg3 mi
2:55 PM70 °FScattered clouds.5 mph43%29.92 "Hg3 mi
2:25 PM70 °FScattered clouds.7 mph43%29.92 "Hg4 mi
1:55 PM70 °FPassing clouds.7 mph43%29.92 "Hg4 mi
1:25 PM70 °FHaze.6 mph43%29.95 "Hg3 mi
12:55 PM70 °FHaze.7 mph46%29.95 "Hg2 mi
12:25 PM68 °FHaze.6 mph49%29.95 "Hg2 mi
11:55 AM66 °FClear.6 mph56%29.98 "Hg2 mi
11:25 AM64 °FClear.7 mph60%29.98 "Hg2 mi
10:55 AM61 °FClear.5 mph63%29.98 "Hg1 mi
10:25 AM57 °FClear.3 mph72%29.98 "Hg1 mi
9:25 AM52 °FFog.No wind82%29.95 "Hg1 mi
8:55 AM48 °FFog.No wind87%29.95 "Hg1 mi
8:25 AM48 °FFog.3 mph87%29.92 "Hg1 mi
7:30 AM48 °FFog.3 mph87%29.92 "Hg1 mi
6:25 AM50 °FFog.No wind82%29.89 "Hg2 mi
5:55 AM50 °FClear.No wind88%29.89 "Hg2 mi
5:25 AM52 °FClear.No wind77%29.89 "Hg2 mi
4:55 AM52 °FClear.No wind82%29.89 "Hg2 mi
4:25 AM52 °FClear.No wind82%29.89 "Hg2 mi
4:00 AM54 °FPassing clouds.No wind77%29.89 "Hg2 mi
3:00 AM54 °FPassing clouds.No wind77%29.92 "Hg2 mi
2:30 AM55 °FPassing clouds.5 mph72%29.92 "Hg2 mi
2:00 AM55 °FPassing clouds.No wind72%29.92 "Hg2 mi
1:30 AM57 °FClear.No wind63%29.92 "Hg2 mi
1:00 AM57 °FClear.No wind67%29.95 "Hg2 mi
Weather by CustomWeather, © 2016

See weather overviewHow to use our weather pages